Home   Weather   Alta   Past weeks

Flag for Norway Past Weather in Alta, Norway — Yesterday and Last 2 Weeks

Now
51 °F

Cool.


Feels Like: 49 °F
Forecast: 42 / 50 °F
Wind: 7 mph from North

Location: Alta Lufthavn

Current Time: Aug 21, 2017 at 1:21:11 am

Latest Report: Aug 21, 2017 at 12:00 am


Visibility: N/A

Pressure: 29.60 "Hg

Humidity: 86%

Dew Point: 47 °F

Location of AltaLocation

Past Weather in Alta — Graph

°F

Alta Temperature Yesterday

Maximum temperature yesterday: 55 °F (at 10:00 am)
Minimum temperature yesterday: 52 °F (at 11:00 pm)
Average temperature yesterday: 54 °F

High & Low Weather Summary for the Past Weeks

 TemperatureHumidityPressure
High71 °F (Aug 16, 4:00 pm)96% (Aug 9, 5:00 am)30.09 "Hg (Aug 9, 5:00 am)
Low42 °F (Aug 16, 4:00 am)41% (Aug 16, 4:00 pm)29.38 "Hg (Aug 12, 12:00 pm)
Average55 °F74%29.76 "Hg
* Reported Aug 5 11:00 pm — Aug 20 11:00 pm, Alta. Weather by CustomWeather, © 2017

Note: Actual official high and low records may vary slightly from our data, if they occured in-between our weather recording intervals... More about our weather records

Advertising

Alta Weather History for the Previous 24 Hours

Scroll right to see more
 ConditionsComfort  
Time TempWeatherWind HumidityBarometerVisibility
11:00 pm
Sun, Aug 20
52 °FCool.7 mph86%29.58 "HgN/A
10:00 pm52 °FCool.6 mph88%29.56 "HgN/A
9:00 pm52 °FCool.6 mph91%29.54 "HgN/A
8:00 pm53 °FCool.3 mph89%29.50 "HgN/A
7:00 pm54 °FCool.5 mph86%29.50 "HgN/A
6:00 pm55 °FCool.5 mph82%29.47 "HgN/A
5:00 pm55 °FCool.6 mph83%29.44 "HgN/A
4:00 pm55 °FCool.5 mph85%29.47 "HgN/A
3:00 pm55 °FCool.6 mph88%29.47 "HgN/A
2:00 pm54 °FCool.2 mph89%29.47 "HgN/A
1:00 pm54 °FCool.6 mph91%29.47 "HgN/A
12:00 pm54 °FCool.3 mph89%29.47 "HgN/A
11:00 am54 °FCool.2 mph89%29.47 "HgN/A
10:00 am55 °FCool.7 mph83%29.50 "HgN/A
9:00 am55 °FCool.5 mph89%29.50 "HgN/A
8:00 am54 °FCool.1 mph94%29.54 "HgN/A
7:00 am54 °FCool.3 mph95%29.56 "HgN/A
6:00 am54 °FCool.2 mph95%29.59 "HgN/A
5:00 am54 °FCool.2 mph94%29.61 "HgN/A
4:00 am54 °FCool.1 mph93%29.63 "HgN/A
3:00 am54 °FCool.1 mph93%29.65 "HgN/A
2:00 am53 °FCool.1 mph93%29.66 "HgN/A
1:00 am53 °FCool.1 mph93%29.67 "HgN/A
Weather by CustomWeather, © 2017

See weather overviewHow to use our weather pages